Regional Weather Roundup
Issued by NWS Albany, NY

Home | Current Version | Previous Version | Graphics & Text | Print | Product List | Glossary Off
Versions: 1 2 3 4 5 6 7 8 9 10 11 12 13 14 15 16 17 18 19 20 21 22 23 24 25 26 27 28 29 30 31 32 33 34 35 36 37 38 39 40 41 42 43 44 45 46 47 48 49 50

000
ASUS41 KALY 281410
RWRALY

NEW YORK STATE HOURLY WEATHER ROUNDUP
NATIONAL WEATHER SERVICE ALBANY NY
1000 AM EDT THU AUG 28 2014

NOTE: "FAIR" INDICATES FEW OR NO CLOUDS BELOW 12,000 FEET WITH NO
SIGNIFICANT WEATHER AND/OR NO OBSTRUCTIONS TO VISIBILITY.

NYZ032-033-038>043-046>054-057>066-NYZ062>081-281500-
EAST


CITY           SKY/WX    TMP DP  RH WIND       PRES   REMARKS
ALBANY         MOSUNNY   70  59  68 NW15      29.92S
GLENS FALLS      N/A     70  56  61 NW8       29.91S
POUGHKEEPSIE   MOSUNNY   72  58  61 NE5       29.91S
NEWBURGH       SUNNY     68  57  68 NW7       29.94S
MONTGOMERY     SUNNY     74  55  51 N13       29.93S
WHITE PLAINS   MOSUNNY   72  56  57 NW14      29.91S
ISLIP          MOSUNNY   75  60  59 NW16      29.86F
NEW YORK CITY  MOSUNNY   73  55  53 NW12      29.90F
CENTRAL PARK   SUNNY     72  54  53 VRB5      29.94S
$$

NYZ005>009-017-018-044>046-055-056-281500-
CENTRAL


CITY           SKY/WX    TMP DP  RH WIND       PRES   REMARKS
FULTON         CLOUDY    65  58  78 NW13      30.01R
SYRACUSE       PTSUNNY   65  58  78 W10       30.00S
ROME           PTSUNNY   64  59  83 NW5       30.00R
ELMIRA         CLOUDY    64  54  69 N10       30.05R
BINGHAMTON     NOT AVBL
MONTICELLO     CLOUDY    64  54  68 NW14      30.00R
$$

NYZ026>034-041>043-281500-
NORTH


CITY           SKY/WX    TMP DP  RH WIND       PRES   REMARKS
WATERTOWN      CLOUDY    66  55  67 NW7       29.99R
FORT DRUM      NOT AVBL
MASSENA        MOSUNNY   66  56  70 NW6       29.98R
SARANAC LAKE   CLOUDY    59  51  75 N5        29.96S
PLATTSBURGH    PTSUNNY   68  51  54 N14       29.93S
$$

NYZ001>004-010>016-019>021-281500-
WEST


CITY           SKY/WX    TMP DP  RH WIND       PRES   REMARKS
NIAGARA FALLS  PTSUNNY   63  47  55 N13       30.11R
BUFFALO        PTSUNNY   63  49  60 N12       30.11R
DUNKIRK        CLOUDY    63  56  78 N10       30.13R
JAMESTOWN      CLOUDY    57  52  82 NW8       30.13R
WELLSVILLE     PTSUNNY   60  49  66 NW17G23   30.11R
ROCHESTER      PTSUNNY   65  54  67 NW14G20   30.07R
PENN YAN       CLOUDY    63  55  75 NW7       30.06R
$$

             KEY
       WCI = WIND CHILL INDEX
       VSB = VISIBILITY
       HX  = HEAT INDEX
$$


USA.gov is the U.S. government's official web portal to all federal, state and local government web resources and services.